Simultaneous Nadir Overpasses (SNOs) Predictions

Prediction of SNOs between AQUA and NPP Satellite Orbit:

Table of predicted SNOs for the next 14.0 days since TLE Epoch: 5/22/2020
Index Date (AQUA) Time (AQUA) Lat,Lon (AQUA) SZA (AQUA ) Date (NPP) Time (NPP) Lat,Lon (NPP) SZA (NPP ) Distance(km) Time Diff (sec)
1 05/24/2020 14:05:30 75.26,-154.39 77.43 05/24/2020 14:04:34 75.26,-154.43 77.49 1.22 56
2 05/24/2020 14:54:31 -76.58, 17.26 104.11 05/24/2020 14:54:51 -76.59, 17.36 104.16 2.91 20
3 05/27/2020 06:21:47 75.85, -36.84 76.32 05/27/2020 06:21:16 75.85, -36.79 76.34 1.23 31
4 05/27/2020 07:10:58 -76.67, 133.45 104.66 05/27/2020 07:11:44 -76.67, 133.42 104.69 0.79 46
5 05/29/2020 22:38:13 75.98, 79.45 75.78 05/29/2020 22:38:08 75.97, 79.39 75.80 1.79 5
6 05/29/2020 23:27:18 -77.08,-109.17 105.55 05/29/2020 23:28:29 -77.09,-109.10 105.62 1.96 71
7 06/01/2020 14:05:32 -75.18, 25.37 103.64 06/01/2020 14:04:35 -75.17, 25.31 103.57 1.88 57
8 06/01/2020 14:54:30 76.50,-163.02 74.83 06/01/2020 14:54:50 76.50,-162.96 74.80 1.53 20
9 06/04/2020 06:21:48 -75.80, 143.02 104.65 06/04/2020 06:21:16 -75.81, 143.06 104.64 1.24 32




NCC Satellite Simultaneous Nadir Overpasses (SNOs) Prediction Service
